Location: Gorze? G�rny
(49.8500°N, 19.5000°E)
Time: 05:19:18
(UTC+00:00)

Spot 2 Rocket - Pass Details

Date: 13 May 2021
Orbit: 758 x 771 km, 98.5° (Epoch: 20 June)

Event Time Altitude Azimuth Distance (km) Brightness Sun altitude
Exits shadow 19:07:14 - 136° (SE) 2,395 5.4 -7.2°
Reaches altitude 10° 19:07:31 10° 135° (SE) 2,290 5.3 -7.3°
Maximum altitude 19:12:13 41° 66° (ENE) 1,097 4.1 -7.8°
Drops below altitude 10° 19:16:56 10° 357° (N) 2,300 6.7 -8.4°
Sets 19:19:20 0° 351° (N) 3,230 7.7 -8.7°
